sat.trackr.live / text

‹ back to catalog

STARLINK-34151

NORAD 64120 · 2025-110AA

PAYLOAD ACTIVE UNKNOWN

§ Identity

Operator
Country
US
Launch date
2025-05-23
Launch site
AFWTR
Launch vehicle
Mass (kg)
RCS (m²)

Purposes: comms

External: N2YO · Heavens-Above · Gunter

§ Orbital elements

Epoch: 2026-05-24T22:47:05.574912Z

Period
94.10 min
Inclination
53.1620°
Eccentricity
0.0001282
Mean motion
15.30209277 rev/d
Perigee alt
474.3 km
Apogee alt
476.1 km
Semi-major
6,853.3 km
B*
4.3710e-4
RAAN
32.8598°
Arg perigee
88.3918°
Mean anomaly
271.7230°
Rev number
5,755

§ Raw data

STARLINK-341511 64120U 25110AA  26144.94937008  .00012612  00000+0  43710-3 0  99982 64120  53.1620  32.8598 0001282  88.3918 271.7230 15.30209277 57557

JSON: /api/v1/satellites/64120 · /tle

For live sub-satellite position, see the globe view (requires WebGL).

§ Visibility from observer

Set your observer location to see the next 7 days of passes ≥ 10°. The values pass through the URL so the page stays shareable.

No JS? Fill the form by hand. The geolocation button needs JavaScript.